Home   Weather   Rendsburg   Past weeks

Flag for Germany Past Weather in Rendsburg, Schleswig-Holstein, Germany — Yesterday and Last 2 Weeks

Now
46 °F

Sprinkles. Partly sunny.


Feels Like: 40 °F
Forecast: 36 / 50 °F
Wind: 14 mph from Southwest

Location: Hohn

Current Time: Apr 27, 2017 at 3:22:08 pm

Latest Report: Apr 27, 2017 at 2:20 pm


Visibility: N/A

Pressure: 29.92 "Hg

Humidity: 57%

Dew Point: 32 °F

Location of RendsburgLocation

Past Weather in Rendsburg — Graph

°F

Rendsburg Temperature Yesterday

Maximum temperature yesterday: 48 °F (at 2:20 pm)
Minimum temperature yesterday: 28 °F (at 4:20 am)
Average temperature yesterday: 40 °F

High & Low Weather Summary for the Past Weeks

 TemperatureHumidityPressure
High55 °F (Apr 21, 12:20 pm)100% (Apr 25, 10:30 am)30.63 "Hg (Apr 25, 10:30 am)
Low25 °F (Apr 19, 5:20 am)39% (Apr 19, 2:20 pm)29.56 "Hg (Apr 25, 6:20 am)
Average42 °F76%30.01 "Hg
* Reported Apr 12 1:43 pm — Apr 27 1:20 pm, Rendsburg, Weather by CustomWeather, © 2017

Note: Actual official high and low records may vary slightly from our data, if they occured in-between our weather recording intervals... More about our weather records

Advertising

Rendsburg Weather History for the Previous 24 Hours

Scroll right to see more
 ConditionsComfort  
Time TempWeatherWind HumidityBarometerVisibility
1:20 pm
Thu, Apr 27
46 °FBroken clouds.8 mph57%29.92 "HgN/A
12:26 pm45 °FSprinkles. Broken clouds.12 mph61%29.92 "HgN/A
11:20 am43 °FPartly sunny.17 mph71%29.92 "HgN/A
10:20 am46 °FScattered clouds.10 mph53%29.92 "HgN/A
9:20 am43 °FScattered clouds.6 mph71%29.92 "HgN/A
8:20 am41 °FPassing clouds.5 mph70%29.92 "HgN/A
7:20 am34 °FPassing clouds.3 mph93%29.92 "HgN/A
6:20 am28 °FFog.1 mph93%29.92 "HgN/A
5:20 am30 °FPassing clouds.1 mph93%29.92 "HgN/A
4:20 am30 °FPassing clouds.6 mph93%29.92 "HgN/A
3:20 am32 °FPassing clouds.6 mph93%29.92 "HgN/A
2:20 am36 °FPassing clouds.7 mph87%29.92 "HgN/A
1:20 am36 °FPassing clouds.3 mph87%29.92 "HgN/A
12:20 am36 °FPassing clouds.3 mph81%29.92 "HgN/A
11:20 pm
Wed, Apr 26
36 °FPassing clouds.3 mph81%29.92 "HgN/A
10:28 pm36 °FPassing clouds.5 mph87%29.92 "HgN/A
9:20 pm39 °FPassing clouds.2 mph70%29.92 "HgN/A
8:20 pm45 °FScattered showers. Scattered clouds.3 mph61%29.89 "HgN/A
7:20 pm45 °FScattered showers. Scattered clouds.6 mph57%29.89 "HgN/A
6:20 pm46 °FScattered showers. Scattered clouds.10 mph46%29.89 "HgN/A
5:20 pm48 °FScattered showers. Scattered clouds.10 mph46%29.86 "HgN/A
4:20 pm48 °FScattered showers. Scattered clouds.13 mph54%29.86 "HgN/A
3:20 pm48 °FPartly sunny.3 mph46%29.86 "HgN/A
Weather by CustomWeather, © 2017

See weather overviewHow to use our weather pages